Iron Mountain, MI

1:08 PM CDT on August 24, 2016 (GMT -0500)
Ford

Weather History for KIMT - November, 2012

Change the Weather History Date:

Thursday, November 22, 2012

  Actual Average Record
Temperature  
Mean Temperature 50 °F -  
Max Temperature 62 °F 36 °F 62 °F (2012)
Min Temperature 39 °F 20 °F 0 °F (2008)
Degree Days  
Heating Degree Days 14    
Moisture  
Dew Point 39 °F    
Average Humidity 72    
Maximum Humidity 93    
Minimum Humidity 46    
Precipitation  
Precipitation 0.00 in - - ()
Sea Level Pressure  
Sea Level Pressure 29.65 in    
Wind  
Wind Speed 8 mph (South)    
Max Wind Speed 18 mph    
Max Gust Speed 29 mph    
Visibility 9 miles    
Events      
Averages and records for this station are not official NWS values.
T = Trace of Precipitation, MM = Missing Value Source: NWS Daily Summary

Daily Weather History Graph

Daily Weather History Graph

Search for Another Location

Airport or City:

Trip Planner

Search our weather history database for the weather conditions in past years. The results will help you decide how hot, cold, wet, or windy it might be!

Date:

Astronomy

Nov. 22, 2012 Rise Set
Actual Time 7:02 AM CST 4:14 PM CST
Civil Twilight 6:29 AM CST 4:47 PM CST
Nautical Twilight 5:52 AM CST 5:24 PM CST
Astronomical Twilight 5:17 AM CST 5:59 PM CST
Moon 1:14 PM CST (11/22) 1:06 AM CST (11/22)
Length of Visible Light 10h 17m
Length of Day
9h 11m
Waxing Gibbous, 71% of the Moon is Illuminated
Nov 22
Waxing Gibbous
Nov 28
Full
Dec 6
Last Quarter
Dec 13
New
Dec 19
First Quarter

Hourly Weather History & Observations

Time (CST) Temp. Windchill Dew Point Humidity Pressure Visibility Wind Dir Wind Speed Gust Speed Precip Events Conditions
12:54 AM 39.9 °F 34.5 °F 37.9 °F 93% 29.86 in 5.0 mi SE 8.1 mph - N/A   Clear
1:54 AM 39.9 °F 35.1 °F 37.9 °F 93% 29.84 in 5.0 mi SE 6.9 mph - N/A   Clear
2:54 AM 39.9 °F 35.1 °F 37.9 °F 93% 29.81 in 5.0 mi SE 6.9 mph - N/A   Clear
3:54 AM 39.9 °F 36.7 °F 37.9 °F 93% 29.78 in 6.0 mi ESE 4.6 mph - N/A   Clear
4:54 AM 41.0 °F 38.0 °F 39.0 °F 93% 29.77 in 6.0 mi SE 4.6 mph - N/A   Clear
5:54 AM 39.9 °F 35.1 °F 37.9 °F 93% 29.76 in 5.0 mi ESE 6.9 mph - N/A   Clear
6:54 AM 41.0 °F 37.1 °F 39.0 °F 93% 29.74 in 5.0 mi SE 5.8 mph - N/A   Clear
7:54 AM 44.1 °F 40.1 °F 39.9 °F 85% 29.72 in 7.0 mi SSE 6.9 mph - N/A   Clear
8:54 AM 48.0 °F - 41.0 °F 77% 29.71 in 10.0 mi South 9.2 mph - N/A   Clear
9:54 AM 51.1 °F - 41.0 °F 68% 29.69 in 10.0 mi South 6.9 mph - N/A   Clear
10:54 AM 57.0 °F - 39.9 °F 53% 29.66 in 10.0 mi South 13.8 mph 23.0 mph N/A   Clear
11:54 AM 59.0 °F - 39.9 °F 49% 29.63 in 10.0 mi SSW 18.4 mph 24.2 mph N/A   Clear
12:54 PM 61.0 °F - 39.9 °F 46% 29.60 in 10.0 mi SSW 13.8 mph - N/A   Clear
1:54 PM 62.1 °F - 41.0 °F 46% 29.58 in 10.0 mi South 13.8 mph - N/A   Clear
2:54 PM 62.1 °F - 41.0 °F 46% 29.56 in 10.0 mi South 11.5 mph - N/A   Clear
3:54 PM 59.0 °F - 41.0 °F 51% 29.57 in 10.0 mi SSW 5.8 mph - N/A   Clear
4:54 PM 55.9 °F - 41.0 °F 57% 29.57 in 10.0 mi SSW 5.8 mph - N/A   Clear
5:54 PM 54.0 °F - 41.0 °F 62% 29.57 in 10.0 mi South 4.6 mph - N/A   Clear
6:54 PM 48.9 °F - 39.9 °F 71% 29.57 in 10.0 mi Calm Calm - N/A   Clear
7:54 PM 48.0 °F - 39.9 °F 74% 29.55 in 10.0 mi South 5.8 mph - N/A   Mostly Cloudy
8:54 PM 50.0 °F - 41.0 °F 71% 29.53 in 10.0 mi South 4.6 mph - N/A   Overcast
9:54 PM 48.9 °F - 39.9 °F 71% 29.52 in 10.0 mi NW 5.8 mph - N/A   Overcast
10:50 PM 46.4 °F 39.5 °F 35.6 °F 66% 29.53 in 10.0 mi WNW 17.3 mph 28.8 mph N/A   Overcast
10:54 PM 46.0 °F 39.6 °F 36.0 °F 68% 29.54 in 10.0 mi WNW 15.0 mph 26.5 mph N/A   Overcast
11:54 PM 41.0 °F 33.9 °F 36.0 °F 82% 29.55 in 10.0 mi WNW 12.7 mph - 0.00 in   Overcast